timestamp,surface_pressure_avg,surface_temp_avg,battery_voltage,lat,long
2018-04-26 00:00:00+00:00,232.7948,4.7,13.05,47.84626,-54.09684
2018-04-26 00:10:00+00:00,223.4748,4.71,13.05,47.84626,-54.09684
2018-04-26 00:20:00+00:00,221.3715,4.78,13.05,47.84626,-54.09684
2018-04-26 00:30:00+00:00,222.5548,4.75,13.05,47.84626,-54.09684
2018-04-26 00:40:00+00:00,217.6397,4.7,13.13,47.84626,-54.09684
2018-04-26 00:50:00+00:00,208.3698,4.7,13.13,47.84626,-54.09684
2018-04-26 01:00:00+00:00,207.7598,4.7,13.05,47.84626,-54.09684
2018-04-26 01:10:00+00:00,207.5931,4.7,12.97,47.84626,-54.09684
2018-04-26 01:20:00+00:00,201.6081,4.7,13.05,47.84626,-54.09684
2018-04-26 01:30:00+00:00,198.5614,4.7,13.05,47.84626,-54.09684
2018-04-26 01:40:00+00:00,199.9415,4.7,13.05,47.84626,-54.09684
2018-04-26 01:50:00+00:00,197.1631,4.7,13.05,47.84626,-54.09684
2018-04-26 02:00:00+00:00,194.7332,4.73,13.05,47.84626,-54.09684
2018-04-26 02:10:00+00:00,196.3048,4.72,12.97,47.84626,-54.09684
2018-04-26 02:20:00+00:00,197.7481,4.74,13.05,47.84626,-54.09684
2018-04-26 02:30:00+00:00,195.3215,4.75,13.05,47.84626,-54.09684
2018-04-26 02:40:00+00:00,196.5131,4.76,13.05,47.84626,-54.09684
2018-04-26 02:50:00+00:00,200.8364,4.78,13.05,47.84626,-54.09684
2018-04-26 03:00:00+00:00,199.9848,4.8,13.05,47.84626,-54.09684
2018-04-26 03:10:00+00:00,200.6464,4.8,12.97,47.84626,-54.09684
2018-04-26 03:20:00+00:00,201.8531,4.8,13.05,47.84626,-54.09684
2018-04-26 03:30:00+00:00,199.4898,4.8,13.05,47.84626,-54.09684
2018-04-26 03:50:00+00:00,205.9964,4.8,13.05,47.84626,-54.09684
2018-04-26 04:00:00+00:00,205.0598,4.8,12.97,47.84626,-54.09684
2018-04-26 04:10:00+00:00,204.9948,4.86,12.97,47.84626,-54.09684
2018-04-26 04:20:00+00:00,209.2181,4.88,13.05,47.84626,-54.09684
2018-04-26 04:30:00+00:00,212.0998,4.9,13.05,47.84626,-54.09684
2018-04-26 04:40:00+00:00,213.7115,4.9,13.05,47.84626,-54.09684
2018-04-26 04:50:00+00:00,218.5231,4.9,13.05,47.84626,-54.09684
2018-04-26 05:00:00+00:00,222.3748,4.9,12.97,47.84626,-54.09684
2018-04-26 05:10:00+00:00,228.1097,4.9,12.97,47.84626,-54.09684
2018-04-26 05:20:00+00:00,232.6814,4.9,12.97,47.84626,-54.09684
2018-04-26 05:30:00+00:00,238.9781,4.9,12.97,47.84626,-54.09684
2018-04-26 05:40:00+00:00,245.9964,4.79,13.05,47.84626,-54.09684
2018-04-26 05:50:00+00:00,255.4847,4.8,13.05,47.84626,-54.09684
2018-04-26 06:00:00+00:00,262.7581,4.8,12.97,47.84626,-54.09684
2018-04-26 06:10:00+00:00,268.4314,4.8,12.89,47.84626,-54.09684
2018-04-26 06:20:00+00:00,271.6364,4.88,12.97,47.84626,-54.09684
2018-04-26 06:30:00+00:00,281.2564,4.89,12.97,47.84626,-54.09684
2018-04-26 06:40:00+00:00,289.5913,4.8,13.05,47.84626,-54.09684
2018-04-26 06:50:00+00:00,295.103,4.89,13.05,47.84626,-54.09684
2018-04-26 07:00:00+00:00,296.2913,4.9,12.97,47.84626,-54.09684
2018-04-26 07:10:00+00:00,304.4963,4.9,12.89,47.84626,-54.09684
2018-04-26 07:20:00+00:00,310.8263,4.9,12.97,47.84626,-54.09684
2018-04-26 07:30:00+00:00,311.423,4.9,12.97,47.84626,-54.09684
2018-04-26 07:40:00+00:00,315.048,4.89,12.97,47.84626,-54.09684
2018-04-26 07:50:00+00:00,323.0764,4.8,13.05,47.84626,-54.09684
2018-04-26 08:00:00+00:00,324.8362,4.84,12.97,47.84626,-54.09684
2018-04-26 08:10:00+00:00,324.1813,4.85,12.89,47.84626,-54.09684
2018-04-26 08:20:00+00:00,328.6196,4.8,12.97,47.84626,-54.09684
2018-04-26 08:30:00+00:00,332.168,4.8,12.97,47.84626,-54.09684
2018-04-26 08:40:00+00:00,333.9014,4.83,12.97,47.84626,-54.09684
2018-04-26 08:50:00+00:00,334.4179,4.8,13.05,47.84626,-54.09684
2018-04-26 09:00:00+00:00,338.5547,4.8,12.97,47.84626,-54.09684
2018-04-26 09:10:00+00:00,340.303,4.85,12.89,47.84626,-54.09684
2018-04-26 09:20:00+00:00,336.518,4.86,13.13,47.84626,-54.09684
2018-04-26 09:30:00+00:00,331.298,4.83,13.29,47.84626,-54.09684
2018-04-26 09:40:00+00:00,330.7063,4.8,13.44,47.84626,-54.09684
2018-04-26 09:50:00+00:00,330.0363,4.7,13.44,47.84626,-54.09684
2018-04-26 10:00:00+00:00,323.3313,4.78,13.44,47.84626,-54.09684
2018-04-26 10:10:00+00:00,320.9463,4.8,13.37,47.84626,-54.09684
2018-04-26 10:20:00+00:00,315.2513,4.8,13.53,47.84626,-54.09684
2018-04-26 10:30:00+00:00,308.2197,4.8,13.6,47.84626,-54.09684
2018-04-26 10:40:00+00:00,303.2097,4.85,14.8,47.84626,-54.09684
2018-04-26 10:50:00+00:00,299.2913,4.88,14.0,47.84626,-54.09684
2018-04-26 11:00:00+00:00,289.5764,4.87,14.0,47.84626,-54.09684
2018-04-26 11:10:00+00:00,282.4464,4.85,13.92,47.84626,-54.09684
2018-04-26 11:20:00+00:00,279.4697,4.82,14.16,47.84626,-54.09684
2018-04-26 11:30:00+00:00,273.7314,4.84,14.24,47.84626,-54.09684
2018-04-26 11:40:00+00:00,262.4481,4.87,14.32,47.84626,-54.09684
2018-04-26 11:50:00+00:00,255.9363,4.88,14.4,47.84626,-54.09684
2018-04-26 12:00:00+00:00,251.4114,4.9,14.24,47.84626,-54.09684
2018-04-26 12:10:00+00:00,244.9398,4.9,14.08,47.84626,-54.09684
2018-04-26 12:20:00+00:00,236.1148,4.9,15.11,47.84626,-54.09684
2018-04-26 12:30:00+00:00,231.0814,4.9,15.51,47.84626,-54.09684
2018-04-26 12:40:00+00:00,227.2614,4.9,15.99,47.84626,-54.09684
2018-04-26 12:50:00+00:00,219.5398,4.95,16.15,47.84626,-54.09684
2018-04-26 13:00:00+00:00,213.7231,4.99,16.07,47.84626,-54.09684
2018-04-26 13:10:00+00:00,210.5198,5.0,14.48,47.84626,-54.09684
2018-04-26 13:20:00+00:00,205.9314,5.0,16.31,47.84626,-54.09684
2018-04-26 13:30:00+00:00,201.9998,5.0,16.15,47.84626,-54.09684
2018-04-26 13:40:00+00:00,195.3715,5.0,16.31,47.84626,-54.09684
2018-04-26 13:50:00+00:00,190.1865,5.0,15.27,47.84626,-54.09684
2018-04-26 14:00:00+00:00,190.3398,5.0,14.48,47.84626,-54.09684
2018-04-26 14:10:00+00:00,190.7515,5.0,14.72,47.84626,-54.09684
2018-04-26 14:20:00+00:00,187.9248,5.0,14.56,47.84626,-54.09684
2018-04-26 14:30:00+00:00,184.9964,4.99,14.48,47.84626,-54.09684
2018-04-26 14:40:00+00:00,186.4464,4.98,15.35,47.84626,-54.09684
2018-04-26 14:50:00+00:00,185.7865,4.9,14.56,47.84626,-54.09684
2018-04-26 15:00:00+00:00,182.8131,4.9,14.4,47.84626,-54.09684
2018-04-26 15:10:00+00:00,183.1481,4.9,14.32,47.84626,-54.09684
2018-04-26 15:20:00+00:00,184.4431,4.96,14.48,47.84626,-54.09684
2018-04-26 15:30:00+00:00,182.9615,5.0,14.72,47.84626,-54.09684
2018-04-26 15:40:00+00:00,184.6232,5.01,15.27,47.84626,-54.09684
2018-04-26 15:50:00+00:00,189.9298,5.1,14.72,47.84626,-54.09684
2018-04-26 16:00:00+00:00,190.1881,5.1,14.56,47.84626,-54.09684
2018-04-26 16:10:00+00:00,190.9248,5.19,14.4,47.84626,-54.09684
2018-04-26 16:20:00+00:00,192.8498,5.3,14.56,47.84626,-54.09684
2018-04-26 16:30:00+00:00,195.1664,5.3,14.48,47.84626,-54.09684
2018-04-26 16:40:00+00:00,197.3948,5.4,14.48,47.84626,-54.09684
2018-04-26 16:50:00+00:00,198.2665,5.52,14.56,47.84626,-54.09684
2018-04-26 17:00:00+00:00,201.3114,5.64,14.32,47.84626,-54.09684
2018-04-26 17:10:00+00:00,206.2848,5.72,14.24,47.84626,-54.09684
2018-04-26 17:20:00+00:00,212.3364,5.78,14.4,47.84626,-54.09684
2018-04-26 17:30:00+00:00,216.9665,5.16,14.32,47.84626,-54.09684
2018-04-26 17:40:00+00:00,219.3514,5.04,14.32,47.84626,-54.09684
2018-04-26 17:50:00+00:00,224.6448,5.3,14.24,47.84626,-54.09684
2018-04-26 18:00:00+00:00,233.5064,4.96,14.16,47.84626,-54.09684
2018-04-26 18:10:00+00:00,238.9881,4.8,14.08,47.84626,-54.09684
2018-04-26 18:20:00+00:00,244.1248,4.85,14.16,47.84626,-54.09684
2018-04-26 18:30:00+00:00,252.6814,5.1,14.16,47.84626,-54.09684
2018-04-26 18:40:00+00:00,262.7964,5.19,14.16,47.84626,-54.09684
2018-04-26 18:50:00+00:00,270.9698,5.1,14.08,47.84626,-54.09684
2018-04-26 19:00:00+00:00,279.5047,4.99,14.0,47.84626,-54.09684
2018-04-26 19:10:00+00:00,288.853,4.46,13.92,47.84626,-54.09684
2018-04-26 19:20:00+00:00,295.6381,4.57,14.0,47.84626,-54.09684
2018-04-26 19:30:00+00:00,300.3997,4.6,14.0,47.84626,-54.09684
2018-04-26 19:40:00+00:00,306.4446,4.3,14.0,47.84626,-54.09684
2018-04-26 19:50:00+00:00,312.5364,4.19,14.0,47.84626,-54.09684
2018-04-26 20:00:00+00:00,316.218,4.0,13.84,47.84626,-54.09684
2018-04-26 20:10:00+00:00,317.1946,3.97,13.68,47.84626,-54.09684
2018-04-26 20:20:00+00:00,319.473,4.15,13.76,47.84626,-54.09684
2018-04-26 20:30:00+00:00,321.993,4.1,13.68,47.84626,-54.09684
2018-04-26 20:40:00+00:00,324.8146,4.0,13.68,47.84626,-54.09684
2018-04-26 20:50:00+00:00,328.103,4.05,13.68,47.84626,-54.09684
2018-04-26 21:00:00+00:00,329.2629,4.1,13.6,47.84626,-54.09684
2018-04-26 21:10:00+00:00,328.5896,4.0,13.44,47.84626,-54.09684
2018-04-26 21:20:00+00:00,330.038,3.93,13.44,47.84626,-54.09684
2018-04-26 21:30:00+00:00,331.9546,4.1,13.44,47.84626,-54.09684
2018-04-26 21:40:00+00:00,331.8047,4.4,13.44,47.84626,-54.09684
2018-04-26 21:50:00+00:00,328.003,4.39,13.37,47.84626,-54.09684
2018-04-26 22:00:00+00:00,327.3913,4.89,13.29,47.84626,-54.09684
2018-04-26 22:10:00+00:00,324.783,4.99,13.21,47.84626,-54.09684
2018-04-26 22:20:00+00:00,322.4513,4.6,13.21,47.84626,-54.09684
2018-04-26 22:30:00+00:00,316.1746,4.77,13.21,47.84626,-54.09684
2018-04-26 22:40:00+00:00,312.7079,5.02,13.21,47.84626,-54.09684
2018-04-26 22:50:00+00:00,311.2713,5.1,13.21,47.84626,-54.09684
2018-04-26 23:00:00+00:00,306.1313,5.28,13.13,47.84626,-54.09684
2018-04-26 23:10:00+00:00,298.4363,5.44,13.05,47.84626,-54.09684
2018-04-26 23:20:00+00:00,291.4297,5.5,13.13,47.84626,-54.09684
2018-04-26 23:30:00+00:00,287.7264,5.5,13.13,47.84626,-54.09684
2018-04-26 23:40:00+00:00,280.8431,5.49,13.13,47.84626,-54.09684
2018-04-26 23:50:00+00:00,270.9364,5.5,13.13,47.84626,-54.09684
